| time (UTC) | temp F | wind direction | speed MPH | gust MPH | rain 1hr in | rain 24hr in | rain mn in | humidity % | barometer mb |
| 20260505054548 | 39 | 0 | 0.0 | 4.0 | 0.06 | 0.84 | 0.84 | 94 | 1015.7 |
| 20260505053045 | 38 | 101 | 1.0 | 3.0 | 0.06 | 0.83 | 0.83 | 94 | 1015.9 |
| 20260505051537 | 38 | 90 | 2.0 | 6.0 | 0.07 | 0.83 | 0.83 | 93 | 1015.6 |
| 20260505041530 | 40 | 63 | 2.0 | 4.0 | 0.11 | 0.76 | 0.76 | 92 | 1016.0 |
| 20260505040040 | 40 | 67 | 2.0 | 4.0 | 0.11 | 0.74 | 0.74 | 92 | 1016.1 |
| 20260505034532 | 40 | 155 | 2.0 | 6.0 | 0.09 | 0.71 | 0.71 | 92 | 1016.1 |
| 20260505033036 | 41 | 181 | 5.0 | 10.0 | 0.15 | 0.68 | 0.68 | 91 | 1016.0 |
| 20260505031530 | 41 | 174 | 5.0 | 9.0 | 0.13 | 0.65 | 0.65 | 91 | 1015.6 |
| 20260505030033 | 41 | 209 | 1.0 | 3.0 | 0.11 | 0.63 | 0.63 | 90 | 1015.2 |
| 20260505024531 | 42 | 131 | 2.0 | 4.0 | 0.09 | 0.61 | 0.61 | 89 | 1015.0 |
| 20260505023031 | 42 | 29 | 4.0 | 10.0 | 0.01 | 0.52 | 0.52 | 89 | 1014.4 |
| 20260505021532 | 42 | 0 | 0.0 | 8.0 | 0.00 | 0.52 | 0.52 | 89 | 1014.0 |
| 20260505020028 | 42 | 44 | 4.0 | 6.0 | 0.00 | 0.52 | 0.52 | 89 | 1013.8 |
| 20260505014532 | 43 | 67 | 3.0 | 5.0 | 0.00 | 0.52 | 0.52 | 89 | 1013.6 |
| 20260505013032 | 43 | 72 | 2.0 | 4.0 | 0.00 | 0.52 | 0.52 | 88 | 1013.4 |
| 20260505011531 | 43 | 351 | 1.0 | 2.0 | 0.01 | 0.52 | 0.52 | 88 | 1013.4 |
| 20260505010031 | 44 | 332 | 4.0 | 6.0 | 0.03 | 0.52 | 0.52 | 88 | 1013.3 |
| 20260505004528 | 44 | 94 | 1.0 | 5.0 | 0.11 | 0.52 | 0.52 | 88 | 1013.1 |
| 20260505003029 | 43 | 107 | 3.0 | 8.0 | 0.15 | 0.52 | 0.52 | 88 | 1013.1 |
| 20260505001530 | 43 | 106 | 7.0 | 12.0 | 0.24 | 0.51 | 0.51 | 87 | 1013.4 |
| 20260505000033 | 43 | 155 | 2.0 | 11.0 | 0.25 | 0.49 | 0.49 | 87 | 1014.1 |
| 20260504234529 | 43 | 162 | 8.0 | 11.0 | 0.17 | 0.41 | 0.41 | 86 | 1014.4 |
| 20260504233028 | 44 | 146 | 9.0 | 17.0 | 0.12 | 0.36 | 0.36 | 82 | 1013.8 |
| 20260504231530 | 46 | 174 | 5.0 | 9.0 | 0.03 | 0.27 | 0.27 | 81 | 1013.8 |
| 20260504230030 | 47 | 123 | 2.0 | 8.0 | 0.00 | 0.24 | 0.24 | 82 | 1013.5 |
| 20260504224531 | 47 | 129 | 4.0 | 9.0 | 0.00 | 0.24 | 0.24 | 81 | 1013.4 |
| 20260504223030 | 47 | 134 | 8.0 | 15.0 | 0.00 | 0.24 | 0.24 | 82 | 1013.6 |
| 20260504221528 | 47 | 143 | 7.0 | 10.0 | 0.00 | 0.24 | 0.24 | 83 | 1013.8 |
| 20260504220030 | 46 | 122 | 7.0 | 12.0 | 0.00 | 0.24 | 0.24 | 86 | 1014.1 |
| 20260504214535 | 45 | 115 | 8.0 | 13.0 | 0.00 | 0.24 | 0.24 | 88 | 1014.4 |
| 20260504213031 | 45 | 171 | 9.0 | 16.0 | 0.04 | 0.24 | 0.24 | 86 | 1014.8 |
| 20260504211531 | 48 | 130 | 3.0 | 9.0 | 0.04 | 0.24 | 0.24 | 89 | 1014.7 |
| 20260504210032 | 47 | 61 | 6.0 | 17.0 | 0.09 | 0.24 | 0.24 | 90 | 1014.6 |
| 20260504204531 | 44 | 99 | 7.0 | 11.0 | 0.09 | 0.24 | 0.24 | 87 | 1014.8 |
| 20260504203032 | 44 | 321 | 3.0 | 6.0 | 0.05 | 0.20 | 0.20 | 85 | 1015.7 |
| 20260504201532 | 45 | 311 | 6.0 | 10.0 | 0.05 | 0.20 | 0.20 | 80 | 1015.5 |
| 20260504200040 | 47 | 251 | 4.0 | 11.0 | 0.00 | 0.15 | 0.15 | 74 | 1015.2 |
| 20260504194536 | 49 | 98 | 3.0 | 9.0 | 0.00 | 0.15 | 0.15 | 72 | 1014.9 |
| 20260504193032 | 50 | 83 | 4.0 | 10.0 | 0.01 | 0.15 | 0.15 | 76 | 1015.1 |
| 20260504191543 | 47 | 5 | 5.0 | 10.0 | 0.04 | 0.15 | 0.15 | 80 | 1015.5 |
| 20260504190031 | 45 | 309 | 4.0 | 7.0 | 0.07 | 0.15 | 0.15 | 81 | 1015.9 |
| 20260504184540 | 45 | 69 | 5.0 | 11.0 | 0.12 | 0.15 | 0.15 | 79 | 1016.0 |
| 20260504183040 | 45 | 105 | 5.0 | 10.0 | 0.14 | 0.14 | 0.14 | 81 | 1015.8 |
| 20260504181534 | 43 | 88 | 3.0 | 16.0 | 0.11 | 0.11 | 0.11 | 83 | 1016.1 |
| 20260504180030 | 42 | 121 | 10.0 | 19.0 | 0.08 | 0.08 | 0.08 | 82 | 1016.4 |
| 20260504174531 | 42 | 121 | 7.0 | 14.0 | 0.03 | 0.03 | 0.03 | 78 | 1016.4 |
| 20260504173032 | 50 | 170 | 17.0 | 28.0 | 0.00 | 0.00 | 0.00 | 57 | 1016.1 |
| 20260504171532 | 55 | 239 | 2.0 | 5.0 | 0.00 | 0.00 | 0.00 | 47 | 1015.9 |
| 20260504081531 | 42 | 134 | 5.0 | 13.0 | 0.00 | 0.00 | 0.00 | 51 | 1016.5 |